Content
SEND FEEDBACK

Daily
Averages
Monthly
Summary
United States of America

MAURICEVILLE, TEXAS


Home > North America > United States > Texas
Elevation: 20 feet     Latitude: 30 14N     Longitude: 093 44W

WEATHER
 
SELECT A DAY
Number of Records: 117,483;   Date Range: 8/25/05 - 11/27/14
 
SHARE

PRINT THIS DATA

[ ← Previous Day ]
WEATHER ALMANAC - MAY 25, 2013
[ Next Day → ]
[ °C ]   °F
Weather ElementAverageHighLow
Temperature76.5 °F84.9 °F (1:15 pm) (7:55 pm)
Dewpoint70.1 °F73.4 °F (12:55 am) (7:00 pm)
Humidity81.4 %96 % (4:15 am)61 % (12:55 pm)
Barometer28.87 in30.19 in (9:35 am) (7:00 pm)
Wind Speed1.9 mph11.5 mph (12:35 pm)
Wind Gust16.1 mph (3:15 pm)
Weather ElementAverage
Visibility9.6 mi
Wind DirectionNNE (24.2 °)

Weather ElementTotal
Precipitation---
Heating Degree Days22.6 (Base 65)
Averaged from 71 records on May 25, 2013
WEATHER CONDITIONS BREAKOUT
WIND DIRECTION BREAKOUT
WEATHER BY HOUR - MAY 25, 2013
[ °C ]   °F
Local TimeTemperatureDewpointHumidityBarometerVisibilityWind DirectionWind SpeedGust SpeedPrecipitationEventsConditions
12:35 AM75.2 °F72.7 °F92 %30.14 in10.0 miCalmClear
12:55 AM76.1 °F73.4 °F91 %30.14 in10.0 miCalmScattered Clouds
1:15 AM75.9 °F73.0 °F91 %30.14 in10.0 miCalmScattered Clouds
1:35 AM74.3 °F72.5 °F94 %30.14 in10.0 miCalmClear
1:55 AM74.1 °F71.6 °F92 %30.13 in10.0 miCalmScattered Clouds
2:15 AM73.0 °F71.1 °F93 %30.13 in10.0 miCalmClear
2:35 AM72.3 °F70.0 °F92 %30.13 in10.0 miCalmClear
2:55 AM71.8 °F70.0 °F94 %30.13 in10.0 miCalmClear
3:15 AM71.2 °F69.1 °F93 %30.13 in10.0 miCalmClear
3:35 AM71.1 °F69.4 °F95 %30.13 in10.0 miCalmClear
3:55 AM70.7 °F69.1 °F95 %30.13 in7.0 miCalmClear
4:15 AM70.2 °F68.9 °F96 %30.13 in5.0 miCalmClear
4:35 AM70.0 °F68.9 °F96 %30.13 in7.0 miCalmClear
4:55 AM70.2 °F68.9 °F96 %30.13 in10.0 miCalmClear
5:15 AM69.8 °F68.5 °F96 %30.13 in7.0 miCalmClear
5:35 AM69.8 °F68.5 °F96 %30.13 in7.0 miCalmClear
5:55 AM69.8 °F68.4 °F95 %30.14 in7.0 miCalmClear
6:15 AM69.4 °F68.2 °F96 %30.14 in7.0 miCalmClear
6:35 AM69.8 °F68.2 °F95 %30.14 in7.0 miCalmScattered Clouds
6:55 AM71.1 °F69.3 °F94 %30.15 in10.0 miCalmScattered Clouds
7:15 AM72.5 °F70.0 °F92 %30.16 in10.0 miCalmClear
7:35 AM74.1 °F71.1 °F90 %30.16 in10.0 miCalmClear
7:55 AM75.2 °F72.1 °F90 %30.17 in10.0 miCalmClear
8:15 AM75.7 °F72.3 °F89 %30.18 in10.0 miCalmClear
8:35 AM76.3 °F72.5 °F88 %30.17 in10.0 miCalmClear
8:55 AM77.2 °F72.9 °F86 %30.17 in10.0 miCalmClear
9:15 AM78.1 °F73.4 °F85 %30.18 in10.0 miCalmClear
9:35 AM78.8 °F73.4 °F83 %30.19 in10.0 miCalmClear
9:55 AM79.7 °F73.4 °F81 %30.19 in10.0 miCalmScattered Clouds
10:15 AM80.6 °F72.5 °F76 %30.19 in10.0 miCalmScattered Clouds
10:35 AM81.5 °F72.9 °F75 %30.18 in10.0 miNorthMostly Cloudy
10:55 AM81.7 °F72.9 °F74 %30.19 in10.0 miNorthMostly Cloudy
11:15 AM82.0 °F73.0 °F74 %30.19 in10.0 miCalmMostly Cloudy
11:35 AM83.3 °F72.9 °F71 %30.19 in10.0 miEast (100°)9.2 mphMostly Cloudy
11:55 AM82.4 °F72.1 °F71 %30.18 in10.0 miCalmMostly Cloudy
12:15 PM83.1 °F71.4 °F68 %30.18 in10.0 miCalmMostly Cloudy
12:35 PM84.4 °F71.4 °F65 %30.18 in10.0 miESE (120°)11.5 mphMostly Cloudy
12:55 PM84.2 °F69.6 °F61 %30.18 in10.0 miSE (130°)4.6 mphScattered Clouds
1:15 PM84.9 °F70.7 °F62 %30.17 in10.0 miCalmClear
1:35 PM84.6 °F70.0 °F61 %30.16 in10.0 miSSE (150°)9.2 mphScattered Clouds
1:55 PM84.9 °F70.7 °F62 %30.16 in10.0 miSE (130°)9.2 mphMostly Cloudy
2:15 PM84.4 °F70.9 °F64 %30.16 in10.0 miCalmMostly Cloudy
2:35 PM84.2 °F71.1 °F65 %30.16 in10.0 miSE (140°)9.2 mphScattered Clouds
2:55 PM84.2 °F70.7 °F64 %30.16 in10.0 miSSE (160°)11.5 mphScattered Clouds
3:15 PM83.8 °F70.9 °F65 %30.15 in10.0 miSSE (160°)8.1 mph16.1 mphScattered Clouds
3:35 PM83.5 °F72.1 °F69 %30.15 in10.0 miSE (140°)9.2 mphScattered Clouds
3:55 PM83.3 °F72.5 °F70 %30.14 in10.0 miCalmMostly Cloudy
4:15 PM83.3 °F71.6 °F68 %30.13 in10.0 miSouth (170°)10.4 mphMostly Cloudy
4:35 PM82.4 °F72.0 °F71 %30.13 in10.0 miCalmScattered Clouds
4:55 PM81.7 °F72.5 °F74 %30.13 in10.0 miSSE (160°)10.4 mphScattered Clouds
5:15 PM81.7 °F71.6 °F71 %30.12 in10.0 miSSE (160°)9.2 mphScattered Clouds
5:35 PM81.7 °F71.1 °F70 %30.13 in10.0 miCalmMostly Cloudy
5:55 PM81.1 °F71.2 °F72 %30.12 in10.0 miNorthMostly Cloudy
6:15 PM80.6 °F70.9 °F72 %30.12 in10.0 miNorthScattered Clouds
6:35 PM80.2 °F70.9 °F73 %10.0 miNorthClear
6:55 PM79.9 °F70.9 °F74 %10.0 miNorthClear
7:15 PM79.5 °F71.2 °F76 %10.0 miNorthClear
7:35 PM78.8 °F71.6 °F78 %30.11 in10.0 miNorthClear
7:55 PM0.0 °F0.0 °F30.11 in10.0 miNorthClear
8:15 PM78.3 °F72.5 °F82 %30.12 in10.0 miCalmScattered Clouds
8:35 PM78.3 °F71.8 °F80 %30.12 in10.0 miCalmScattered Clouds
8:55 PM77.9 °F71.6 °F81 %30.12 in10.0 miCalmClear
9:15 PM77.9 °F72.0 °F82 %30.13 in10.0 miCalmClear
9:35 PM77.5 °F72.0 °F83 %30.13 in10.0 miCalmClear
9:55 PM77.5 °F72.0 °F83 %30.13 in10.0 miCalmClear
10:15 PM77.2 °F72.1 °F84 %30.13 in10.0 miNorthClear
10:35 PM76.3 °F71.2 °F84 %30.14 in10.0 miCalmScattered Clouds
10:55 PM74.1 °F69.8 °F86 %30.13 in10.0 miNorthScattered Clouds
11:15 PM73.2 °F69.6 °F88 %30.13 in10.0 miCalmClear
11:35 PM72.1 °F69.4 °F91 %30.13 in10.0 miCalmClear
11:55 PM72.5 °F69.4 °F90 %30.12 in10.0 miCalmClear
Hourly data recorded from KORG, located miles away from Mauriceville, Texas







STORIES FROM OUR PARTNERS